TIANTONG-1 2

Last updated on Thu Aug 13 2026 00:03:02 GMT+0000 (Coordinated Universal Time)

1 46916U 20082A 26223.52766274 -.00000371 00000+0 00000+0 0 9992 2 46916 0.7323 336.0574 0000684 153.2595 145.5553 1.00274288 21204
UTC large
Height (km)
Speed (km/s)
/
Latitude / Longitude
Inclination (degrees)
Orbital Period (minutes)
Azimuth
Elevation
Range (km)
Doppler Factor

Next 0 passes for location: London (51.5072 / 0.1276)

No passes found over London.
TIANTONG-1 2